Regional Weather Roundup
Issued by NWS San Diego, CA

Home | Current Version | Previous Version | Text Only | Print | Product List | Glossary On
Versions: 1 2 3 4 5 6 7 8 9 10 11 12 13 14 15 16 17 18 19 20 21 22 23 24 25 26 27 28 29 30 31 32 33 34 35 36 37 38 39 40 41 42 43 44 45 46 47 48 49
000
ASUS46 KSGX 052011
RWRSGX

SAN DIEGO HOURLY WEATHER ROUNDUP
NATIONAL WEATHER SERVICE SAN DIEGO CA
1200 PM PST THU MAR 05 2015

NOTE: "FAIR" INDICATES FEW OR NO CLOUDS BELOW 12,000 FEET WITH NO
SIGNIFICANT WEATHER AND/OR OBSTRUCTIONS TO VISIBILITY.

CAZ042-043-060-061-PZZ750-775-052100-

GREATER SAN DIEGO AREA

CITY           SKY/WX    TMP DP  RH WIND       PRES   REMARKS
LINDBERGH FLD  SUNNY     70  31  23 NW9       30.24F
CHULA VISTA      N/A     73  36  26 NW7       30.16F
IMPERIAL BEACH MOSUNNY   71  34  25 NW13      30.22F
BROWN FIELD    SUNNY     74  28  18 MISG      30.21F
MIRAMAR MCAS   MOSUNNY   71  29  21 W5        30.23F
MONTGOMERY FLD SUNNY     71  32  23 CALM      30.23F

$$

NORTH SAN DIEGO COUNTY

CITY           SKY/WX    TMP DP  RH WIND       PRES   REMARKS
CAMP PENDLETON MOSUNNY   75  27  17 E5        30.22F
OCEANSIDE AP   SUNNY     68  42  38 W6        30.22F
VISTA            N/A     73  36  26 NW2       30.22F
CARLSBAD       SUNNY     67  41  38 W10       30.22F
DEL MAR          N/A     65  44  46 W1        30.26F
FALLBROOK        N/A     72  29  20 N3        30.23F
SAN MARCOS       N/A     69  40  33 S5        30.21F
POWAY            N/A     74  35  24 W3        30.25F

$$

EAST SAN DIEGO COUNTY

CITY           SKY/WX    TMP DP  RH WIND       PRES   REMARKS
RAMONA         SUNNY     69  26  20 E15       30.23F
SANTEE LAKES     N/A     73  33  23 CALM      30.25F
LA MESA          N/A     71  30  21 SE3       30.18F
JAMUL            N/A     69  36  29 CALM      30.24F
DESCANSO N       N/A     60  29  30 E13       30.16F
MT. LAGUNA OBS   N/A     42  18  38 NE9       29.85S
CAMPO            N/A     60  24  25 NE26      30.22F

$$

ORANGE COUNTY AND THE LOS ANGELES BASIN

CITY           SKY/WX    TMP DP  RH WIND       PRES   REMARKS
JOHN WAYNE AP  MOSUNNY   78  16   9 CALM      30.22F
LAKE FOREST FR   N/A     74  18  12 CALM      30.14F
SANTA ANA        N/A     78  20  11 NE5       30.18F
HUNTINGTON BCH   N/A     76  28  17 NE3       30.25F
LOS ALAMITOS   MOSUNNY   75  25  15 NE9       30.24F
FULLERTON      SUNNY     76  21  12 W7        30.23F
LONG BEACH     SUNNY     74  24  15 VRB3      30.24F
L.A. AP        MOSUNNY   71  25  17 W10       30.25F
L.A. DOWNTOWN  SUNNY     75  26  16 CALM      30.23F

$$

THE INLAND EMPIRE

CITY           SKY/WX    TMP DP  RH WIND       PRES   REMARKS
CORONA         SUNNY     74  20  13 VRB6      30.25F
CHINO          MOSUNNY   71  22  15 CALM      30.26F
ONTARIO        MOSUNNY   70  22  16 VRB3      30.25F
SAN BERNARDINO MOSUNNY   68  16  13 W6        30.26F
RIVERSIDE AP   SUNNY     72  15  11 VRB5      30.25F
RIV CYN CREST    N/A     69  32  25 NW3         N/A
MORENO VALLEY    N/A     68  31  25 SW3       29.46F
MARCH ARB      SUNNY     70  21  15 E13G18    30.25F
HORSETHIEF CYN   N/A     69  21  16 N5        30.25F
PERRIS           N/A     67  27  21 NE3         N/A
MENIFEE          N/A     71  29  21 CALM      30.35F
HEMET EAST       N/A     65  19  16 W1        30.27F
FRENCH VALLEY  FAIR      70  23  17 NE6       30.24F
TEMECULA         N/A     69  35  28 S1        30.20F

$$

SAN BERNARDINO AND RIVERSIDE COUNTY MOUNTAINS

CITY           SKY/WX    TMP DP  RH WIND       PRES   REMARKS
BIG BEAR AP    SUNNY     45   5  19 E9        30.37F
ANGELUS OAKS     N/A     54  25  32 NW3       30.28F
PINE COVE        N/A     54  22  28 S1        30.32F

$$

SOUTHERN DESERT INCLUDING THE COACHELLA VALLEY

CITY           SKY/WX    TMP DP  RH WIND       PRES   REMARKS
PALM SPRINGS   SUNNY     74  17  11 VRB5      30.30F
THOUSAND PALMS   N/A     74  25  16 SW3       30.28F
PALM DESERT      N/A     76  23  14 NW2       28.97S
THERMAL        SUNNY     75  20  12 W8        30.26F
BLYTHE         SUNNY     68  31  25 VRB3      30.29F
IMPERIAL AP    SUNNY     71  29  21 E3        30.27F
EL CENTRO NAS  MOSUNNY   72  29  20 VRB7      30.27F
YUMA AZ        SUNNY     73  31  21 N9        30.25F
MEXICALI       SUNNY     70  21  16 N10       30.27

$$

UPPER DESERT

CITY           SKY/WX    TMP DP  RH WIND       PRES   REMARKS
VICTORVILLE AP MOSUNNY   61  12  15 N10       30.35F
HESPERIA         N/A     60  15  17 E3        30.52F
APPLE VALLEY     N/A     63  15  15 CALM      30.31F
PALMDALE       SUNNY     61  17  18 N8        30.35F
LANCASTER      SUNNY     62  19  19 NE14G21   30.35F
EDWARDS AFB    MOSUNNY   62  16  16 NE8       30.33F
DAGGETT        SUNNY     63  15  15 NE8       30.35F
29 PALMS N     SUNNY     61  18  18 VRB7      30.40F

$$

REGIONAL REPORTS

CITY           SKY/WX    TMP DP  RH WIND       PRES   REMARKS
SANTA BARBARA    N/A     70  31  23 MISG      30.26F
SANDBERG       SUNNY     57  16  20 E21G29    30.35F
MT. WILSON       N/A     59  32  36 MISG        N/A
LAS VEGAS NV   SUNNY     59  21  23 VRB3      30.34F
PHOENIX AZ     SUNNY     69  15  12 E8        30.24F
TIJUANA        SUNNY     73  36  25 E10       30.24F
ENSENADA NW      N/A     68  32  26 W10       30.18F

$$

OFFSHORE ISLANDS

CITY           SKY/WX    TMP DP  RH WIND       PRES   REMARKS
CATALINA ARPT  SUNNY     66  19  16 NE7       30.28F
SAN CLEMENTE I MOSUNNY   66  52  60 E9        30.26F
SAN NICOLAS IS SUNNY    N/A N/A N/A NE7       30.26F

$$

MARINE AND OFFSHORE BUOY REPORTS

STATION/POSITION SKY/WX   TEMP    WIND        PRES    SWELL
                          AIR SEA DIR/SP/G            HT/PER/DIR
                          (F)     (DEG/KT/KT) (MB)    (FT/S/D)
TANNER BANKS               62 62   50/  8/ 10 1024.2F   5/180/15
S CLEMENTE BASIN           61 63   10/  6/  8 1023.9F   3/200/16
SAN NICOLAS IS.               60                N/A     3/180/15
SO. S. ROSA ISLA           60 61   10/  4/  4 1024.4F   5/16
W. S. BARBARA CH           61 60     CALM     1024.8F   3/190/15
S. MONICA BASIN            63 62   40/  4/  4 1024.8F   3/180/15
S PEDRO CHANNEL               62                N/A     2/180/15
DANA POINT                    61                N/A     3/190/15
CMP PENDLETON NS              62                N/A     3/210/15
OCEANSIDE OFFSHR              62                N/A     3/180/15
TORREY PINES OTR              63                N/A     3/200/14
LA JOLLA 1                 63 62  320/  2/  4 1024.7S
MISSION BAY BUOY              63                N/A     3/200/15
SAN DIEGO BAY                 64              1024.8F
POINT LOMA SOUTH              64                N/A     3/190/15

$$



USA.gov is the U.S. government's official web portal to all federal, state and local government web resources and services.